[[{"header":{"parameterUnit":"m.s-1","parameterCategory":1,"la1":30.2991,"la2":30.254,"lo1":-89.0895,"lo2":-89.0444,"dy":0.0017,"dx":0.0017,"nx":28,"ny":28,"refTime":"2024-02-09T03:00:00:Z","depth":0,"parameterNumber":2,"parameterNumberName":"U-component_of_WINDS"},"data":[0,0,0,0,0,0,0,0,0,0,0,0,0,0,0,0,0,0,0,0,0,0,0,0,0,0,0,0,0,0,0,0,0,0,0,0,0,0,0,0,0,0,0,0,0,0,0,0,0,0,0,0,0,0,0,0,0,0,-1.6951,-1.6951,0,-1.6981,-1.6981,-1.6981,-1.6974,-1.6974,-1.6973,-1.6973,-1.7005,-1.7006,-1.7007,0,0,0,0,0,0,0,0,0,0,0,0,0,-1.6889,-1.689,-1.6951,-1.6951,-1.6952,-1.6981,-1.6981,-1.6981,-1.6975,-1.6974,-1.6973,-1.6972,-1.7004,-1.7006,-1.7008,0,0,0,0,0,0,0,0,0,0,0,0,0,-1.6917,-1.6891,-1.6951,-1.6952,-1.6952,-1.6981,-1.6981,-1.6982,-1.6975,-1.6974,-1.6973,-1.6972,-1.7004,-1.7006,-1.7008,-1.7038,0,0,-1.7014,-1.7015,0,0,0,0,0,0,0,0,-1.6916,-1.692,-1.6951,-1.6952,-1.6952,-1.6973,-1.6971,-1.7,-1.6975,-1.6966,-1.6973,-1.6972,-1.6995,-1.6998,-1.7005,-1.7039,-1.7041,-1.7014,-1.7016,-1.7016,-1.7017,0,0,0,0,0,0,0,-1.6914,-1.6918,-1.6963,-1.6952,-1.6952,-1.6951,-1.6954,-1.6977,-1.6985,-1.6967,-1.6966,-1.697,-1.6995,-1.7003,-1.7006,-1.7041,-1.7014,-1.7016,-1.7017,-1.7018,-1.7101,-1.7102,0,0,0,0,0,0,-1.6911,-1.6917,-1.6962,-1.6964,-1.6931,-1.6953,-1.6956,-1.6967,-1.6985,-1.6987,-1.6971,-1.6969,-1.7,-1.7003,-1.7007,-1.7042,-1.7016,-1.7018,-1.702,-1.71,-1.7101,-1.7102,0,0,0,0,0,0,-1.691,-1.6915,-1.6961,-1.694,-1.6946,-1.6955,-1.6967,-1.6968,-1.6976,-1.6988,-1.6989,-1.6977,-1.7,-1.7004,-1.703,-1.7043,-1.7019,-1.7021,-1.7099,-1.71,-1.7102,-1.7114,0,0,0,0,0,0,-1.6908,-1.6915,-1.6926,-1.694,-1.6947,-1.6982,-1.6968,-1.6969,-1.698,-1.6978,-1.6994,-1.6996,-1.6999,-1.7027,-1.7032,-1.7046,-1.7023,-1.7098,-1.7099,-1.7101,-1.7112,-1.7116,-1.7118,0,0,0,0,0,-1.6906,-1.6929,-1.6927,-1.6932,-1.6961,-1.6983,-1.6987,-1.699,-1.6981,-1.6992,-1.6999,-1.6996,-1.7042,-1.703,-1.7035,-1.705,-1.7097,-1.7099,-1.7101,-1.7111,-1.7115,-1.7118,0,0,0,0,0,0,-1.6916,-1.6931,-1.6928,-1.6956,-1.6969,-1.6982,-1.6996,-1.6994,-1.7009,-1.7008,-1.7011,-1.7015,-1.7041,-1.7048,-1.7035,-1.708,-1.7068,-1.7071,-1.7073,-1.7077,-1.708,-1.7077,-1.7025,0,0,0,0,0,-1.6922,-1.6938,-1.695,-1.6974,-1.698,-1.6987,-1.6997,-1.6998,-1.7011,-1.7016,-1.7026,-1.7039,-1.7056,-1.7068,-1.7084,-1.7114,-1.7117,-1.7127,-1.713,-1.7132,-1.7135,-1.715,-1.7155,-1.7109,-1.7109,-1.7109,0,0,-1.6933,-1.6943,-1.6954,-1.6976,-1.6986,-1.7003,-1.6992,-1.7011,-1.7023,-1.702,-1.7044,-1.7051,-1.7066,-1.7094,-1.7107,-1.7101,-1.7148,-1.7135,-1.7137,-1.7138,-1.7153,-1.7157,-1.7161,-1.7111,-1.711,-1.711,0,0,-1.6963,-1.6972,-1.6992,-1.7002,-1.7017,-1.7021,-1.7026,-1.704,-1.7045,-1.7069,-1.7066,-1.7082,-1.7112,-1.7123,-1.7132,-1.7166,-1.7163,-1.7172,-1.7187,-1.7202,-1.7206,-1.7209,-1.722,-1.7224,-1.7174,-1.7174,-1.7174,0,-1.6975,-1.7,-1.7003,-1.7022,-1.7032,-1.7029,-1.7049,-1.7059,-1.7079,-1.7086,-1.7079,-1.7116,-1.7126,-1.7156,-1.7164,-1.7172,-1.7178,-1.7169,-1.7205,-1.7208,-1.7211,-1.7221,-1.7226,-1.7175,-1.7175,-1.7175,-1.7175,0,-1.7014,-1.7032,-1.7047,-1.7065,-1.7077,-1.7096,-1.7102,-1.7114,-1.7114,-1.712,-1.7145,-1.7157,-1.7176,-1.7183,-1.7184,-1.7213,-1.7209,-1.7204,-1.7192,-1.7216,-1.7226,-1.723,-1.7176,-1.7176,-1.7176,-1.7176,0,0,-1.705,-1.7069,-1.7074,-1.7082,-1.7098,-1.7112,-1.7132,-1.715,-1.7159,-1.7173,-1.719,-1.7215,-1.721,-1.7221,-1.7223,-1.7237,-1.7261,-1.723,-1.723,-1.7234,-1.7293,-1.7296,-1.73,-1.726,-1.7261,-1.7262,-1.7291,0,-1.708,-1.7113,-1.7116,-1.7147,-1.7163,-1.7161,-1.7178,-1.719,-1.7196,-1.7211,-1.7218,-1.7235,-1.7228,-1.7234,-1.7248,-1.7256,-1.7273,-1.7254,-1.7275,-1.7276,-1.7269,-1.7306,-1.7309,-1.7336,-1.7295,-1.7296,-1.7297,0,-1.7118,-1.7132,-1.7164,-1.7177,-1.7184,-1.7199,-1.7216,-1.723,-1.7244,-1.7247,-1.7259,-1.726,-1.728,-1.7269,-1.7297,-1.7284,-1.7293,-1.7298,-1.7299,-1.73,-1.7286,-1.7306,-1.7345,-1.7349,-1.7303,-1.7303,-1.7302,0,-1.7139,-1.7166,-1.7188,-1.7196,-1.7212,-1.7223,-1.723,-1.7243,-1.7253,-1.7268,-1.7275,-1.7292,-1.7301,-1.7315,-1.732,-1.7311,-1.7348,-1.7337,-1.7351,-1.7351,-1.7358,-1.7357,-1.7397,-1.7366,-1.7366,-1.7366,-1.7366,0,-1.7171,-1.719,-1.7198,-1.7211,-1.7233,-1.7237,-1.7258,-1.7265,-1.7277,-1.7292,-1.7292,-1.7307,-1.7313,-1.7329,-1.7334,-1.7356,-1.7361,-1.7364,-1.7364,-1.7363,-1.7362,-1.7368,-1.7365,-1.7367,-1.7367,-1.7367,-1.7367,0,-1.7197,-1.7203,-1.7227,-1.7241,-1.7245,-1.726,-1.7271,-1.7285,-1.7291,-1.731,-1.7315,-1.7325,-1.7343,-1.735,-1.7373,-1.7376,-1.7401,-1.7401,-1.7396,-1.7396,-1.7409,-1.7407,-1.7453,-1.7459,-1.7425,-1.7426,-1.7426,0,-1.7216,-1.7231,-1.7246,-1.7255,-1.7263,-1.7279,-1.7289,-1.7294,-1.7305,-1.7322,-1.7333,-1.7351,-1.7366,-1.7395,-1.7405,-1.7422,-1.7421,-1.7436,-1.7424,-1.7422,-1.742,-1.7419,-1.742,-1.7438,-1.7439,-1.7439,-1.7439,0,-1.7249,-1.7251,-1.7266,-1.7281,-1.7293,-1.7306,-1.7319,-1.7327,-1.7334,-1.7346,-1.7365,-1.7376,-1.7399,-1.7417,-1.7434,-1.7443,-1.7442,-1.7443,-1.7447,-1.7445,-1.7441,-1.7442,-1.74,-1.7442,-1.7441,-1.7441,-1.7441,-1.7441,-1.7271,-1.7284,-1.7296,-1.7312,-1.7322,-1.7333,-1.7346,-1.7354,-1.7369,-1.7387,-1.739,-1.7409,-1.7423,-1.7446,-1.7456,-1.7471,-1.7467,-1.7473,-1.7475,-1.7476,-1.7476,-1.7439,-1.7475,-1.7475,-1.7475,-1.7475,-1.7475,0,-1.7303,-1.7311,-1.7326,-1.7342,-1.7355,-1.7353,-1.7367,-1.7378,-1.7395,-1.7407,-1.7421,-1.7442,-1.746,-1.7471,-1.7488,-1.7499,-1.7499,-1.7503,-1.7502,-1.7503,-1.7479,-1.7473,-1.7503,-1.7503,-1.7503,-1.7503,-1.7503,-1.7503,-1.7321,-1.7341,-1.7345,-1.7371,-1.7379,-1.7397,-1.7405,-1.7416,-1.7425,-1.7448,-1.7462,-1.7469,-1.7481,-1.75,-1.7516,-1.7519,-1.7525,-1.7529,-1.7531,-1.7508,-1.7505,-1.7502,-1.7497,-1.7531,-1.7531,-1.7554,-1.7554,-1.7555]},{"header":{"parameterUnit":"m.s-1","parameterCategory":1,"la1":30.2991,"la2":30.254,"lo1":-89.0895,"lo2":-89.0444,"dy":0.0017,"dx":0.0017,"nx":28,"ny":28,"refTime":"2024-02-09T03:00:00:Z","depth":0,"parameterNumber":3,"parameterNumberName":"V-component_of_WINDS"},"data":[0,0,0,0,0,0,0,0,0,0,0,0,0,0,0,0,0,0,0,0,0,0,0,0,0,0,0,0,0,0,0,0,0,0,0,0,0,0,0,0,0,0,0,0,0,0,0,0,0,0,0,0,0,0,0,0,0,0,1.9721,1.9722,0,1.9804,1.9805,1.9806,1.9833,1.9833,1.9833,1.9832,1.9915,1.9917,1.992,0,0,0,0,0,0,0,0,0,0,0,0,0,1.9585,1.9587,1.9721,1.9722,1.9723,1.9804,1.9805,1.9806,1.9833,1.9833,1.9833,1.9832,1.9914,1.9917,1.992,0,0,0,0,0,0,0,0,0,0,0,0,0,1.9654,1.9588,1.9721,1.9747,1.975,1.9804,1.9805,1.9807,1.9834,1.9833,1.9832,1.9832,1.9913,1.9917,1.9921,1.9955,0,0,1.9932,1.9934,0,0,0,0,0,0,0,0,1.965,1.9659,1.9742,1.9745,1.9749,1.9808,1.9788,1.9856,1.9834,1.9802,1.9832,1.9832,1.988,1.9886,1.9903,1.9959,1.9962,1.9932,1.9935,1.9936,1.9937,0,0,0,0,0,0,0,1.9645,1.9655,1.9754,1.9743,1.9747,1.9754,1.9763,1.9801,1.9842,1.9804,1.9807,1.9816,1.9881,1.9899,1.9905,1.9963,1.9932,1.9936,1.9938,1.994,2.0053,2.0054,0,0,0,0,0,0,1.9636,1.9651,1.9751,1.9757,1.9697,1.9756,1.9767,1.9789,1.9842,1.985,1.9817,1.9817,1.9893,1.99,1.9908,1.9953,1.9936,1.994,1.9942,2.0052,2.0053,2.0054,0,0,0,0,0,0,1.9633,1.9645,1.9748,1.9705,1.9718,1.9759,1.9785,1.9791,1.9809,1.9851,1.9859,1.9827,1.9893,1.9903,1.9943,1.9956,1.9942,1.9945,2.0052,2.0053,2.0054,2.0042,0,0,0,0,0,0,1.9629,1.9644,1.9657,1.9705,1.972,1.9783,1.9785,1.9793,1.9816,1.9817,1.9863,1.987,1.9893,1.9938,1.9947,1.9961,1.9948,2.0051,2.0052,2.0053,2.0042,2.0043,2.0044,0,0,0,0,0,1.9624,1.965,1.9658,1.967,1.9738,1.9783,1.9792,1.9819,1.9817,1.9831,1.9858,1.9869,1.9953,1.9942,1.9953,1.9968,2.005,2.0052,2.0053,2.0041,2.0043,2.0044,0,0,0,0,0,0,1.9601,1.9656,1.9666,1.9708,1.9741,1.9788,1.9806,1.9819,1.9852,1.9852,1.9883,1.9893,1.9932,1.9954,1.994,2.0005,2.0002,2.0006,1.9989,1.9991,1.9992,1.9986,1.9951,0,0,0,0,0,1.9601,1.9634,1.968,1.9712,1.9728,1.9764,1.9785,1.9803,1.9838,1.9852,1.9882,1.9915,1.9949,1.9971,2.0005,2.0045,2.0056,2.0061,2.0062,2.0062,2.0066,2.0091,2.0094,2.006,2.006,2.006,0,0,1.9601,1.9635,1.9654,1.9709,1.9736,1.9769,1.9776,1.981,1.9835,1.9856,1.9898,1.9921,1.996,2.0001,2.0021,2.0021,2.0078,2.0065,2.0065,2.0068,2.0093,2.0096,2.0099,2.0061,2.006,2.006,0,0,1.9619,1.9647,1.9678,1.9707,1.9749,1.9773,1.978,1.9826,1.9843,1.9885,1.9903,1.9932,1.999,2.0018,2.0039,2.0069,2.008,2.0078,2.0084,2.0108,2.0111,2.0113,2.0125,2.0129,2.0081,2.0081,2.0081,0,1.9613,1.9664,1.9692,1.9727,1.9751,1.9773,1.9805,1.9831,1.9881,1.9897,1.9896,1.9971,1.9998,2.0047,2.0055,2.0071,2.0081,2.0074,2.0108,2.0111,2.0114,2.0126,2.013,2.0081,2.0081,2.0081,2.0081,0,1.9656,1.9691,1.9711,1.9762,1.9788,1.982,1.9854,1.9877,1.9892,1.9916,1.9959,1.9993,2.0035,2.0048,2.0062,2.0099,2.0098,2.0102,2.0101,2.0116,2.0128,2.0133,2.0081,2.0081,2.0081,2.0081,0,0,1.9661,1.9728,1.9735,1.9759,1.9808,1.9836,1.9869,1.9912,1.9931,1.9966,1.9996,2.0045,2.0049,2.0074,2.0092,2.0113,2.0136,2.0114,2.0116,2.0119,2.018,2.0178,2.0183,2.0143,2.0144,2.0145,2.0178,0,1.9686,1.9749,1.9776,1.9826,1.986,1.9882,1.9912,1.9945,1.9969,2.0001,2.0026,2.0061,2.0064,2.0079,2.0101,2.0128,2.0149,2.0126,2.0172,2.0173,2.0163,2.0189,2.0186,2.0215,2.0182,2.0183,2.0184,0,1.9723,1.976,1.9814,1.9861,1.9876,1.9902,1.9944,1.9974,2.0012,2.0028,2.0057,2.0074,2.0111,2.0106,2.0157,2.0142,2.0162,2.0178,2.018,2.0186,2.018,2.0197,2.0225,2.023,2.0191,2.019,2.019,0,1.9723,1.9786,1.9827,1.9846,1.9902,1.992,1.9944,1.9982,2.0006,2.0042,2.0059,2.0098,2.0119,2.0149,2.0177,2.0171,2.0227,2.0224,2.0241,2.0241,2.0253,2.0252,2.0286,2.0263,2.0263,2.0263,2.0263,0,1.9749,1.9782,1.9828,1.9854,1.9891,1.9922,1.9958,1.9983,2.0017,2.0048,2.0069,2.0097,2.0131,2.0164,2.0186,2.0226,2.0235,2.0249,2.0255,2.0249,2.0247,2.0263,2.0262,2.0264,2.0264,2.0264,2.0264,0,1.9756,1.9788,1.9835,1.9884,1.9897,1.9923,1.9965,1.9991,2.0016,2.0054,2.0065,2.0104,2.0144,2.0175,2.0225,2.024,2.0283,2.0289,2.0271,2.0274,2.0291,2.029,2.0338,2.0346,2.0316,2.0316,2.0317,0,1.9771,1.9797,1.9849,1.9872,1.9896,1.9932,1.9958,1.9989,2.0015,2.0061,2.0082,2.0123,2.0158,2.0221,2.0253,2.0293,2.03,2.0314,2.0306,2.0299,2.0302,2.0301,2.0305,2.0315,2.0316,2.0316,2.0316,0,1.9794,1.9809,1.9846,1.9888,1.9918,1.9953,1.9988,2.0005,2.0043,2.007,2.0112,2.0139,2.0193,2.0234,2.0277,2.0301,2.0315,2.0318,2.0325,2.0319,2.0308,2.0316,2.0275,2.0317,2.0317,2.0317,2.0317,2.0317,1.9806,1.9831,1.9873,1.9913,1.9943,1.9976,2.0003,2.0033,2.0068,2.0115,2.0131,2.0175,2.0214,2.0274,2.0298,2.0332,2.0333,2.0342,2.0344,2.0347,2.0347,2.0302,2.034,2.034,2.034,2.034,2.034,0,1.9832,1.9861,1.9898,1.9947,1.9979,1.999,2.003,2.0056,2.0094,2.013,2.0165,2.0213,2.0254,2.029,2.0333,2.0353,2.0361,2.0363,2.0363,2.0368,2.0343,2.0334,2.0357,2.0357,2.0357,2.0357,2.0357,2.0357,1.985,1.9893,1.9914,1.9973,2.0001,2.0045,2.0067,2.0097,2.0126,2.018,2.0215,2.0239,2.0275,2.032,2.0358,2.0368,2.0383,2.0385,2.0396,2.0372,2.037,2.0368,2.036,2.0387,2.0387,2.0419,2.0419,2.0419]}]]